星链-5373 (STARLINK-5373 )

导读

STARLINK-5373是美国SpaceX公司星链(Starlink)星座的第二代互联网卫星,于2023年2月2日由猎鹰9号火箭发射升空,属于星链Group 4批次组网卫星。作为低轨通信卫星,它运行在近地轨道,为全球提供高速低延迟宽带互联网接入,覆盖偏远地区与特殊场景,是目前全球最大低轨卫星星座的组成部分,推动全球卫星互联网普及,也引发太空轨道与天文观测相关争议。

基本信息
目录编号:
55490
目录名称:
STARLINK-5373
国际标识:
2023-015AT
轨道中心:
EARTH
卫星名称:
星链-5373
卫星全名:
星链-5373 (STARLINK-5373 )
卫星状态:
在轨 (已飞行1310 天)
发射日期:
2023-02-02 UTC
国别 :
美国 (US)
星等 :
--
轨道信息
数据来源 国际轨道数据
星历时间: 2026-09-03T20:15:17+0800
21小时前
查看轨道信息
半长轴: 6861.202km
偏心率: 0.0001202
轨道倾角: 43.003°
近地点辐角 269.882°
升交点赤经 55.231°
平近点角 90.190°
近地点: 482.24km
远地点: 483.89km
周期: 94.267分钟
每日圈数: 15.275748
详细信息
固有亮度:
5
最大亮度:
2.5
卫星平台:
Starlink v1.5
覆盖范围:
全球
运营商:
太空探索技术公司
运营商所在国:
美国
制造商(研发单位):
太空探索技术公司
制造商所在国:
美国
使用方式:
暂无
卫星简介
星链(Starlink)计划是由太空探索技术公司(SpaceX)提出的一个巨型低轨卫星互联网星座项目,计划在2019年至2024年间在太空搭建由约1.2万颗卫星组成的“星链”网络,其中1584颗将部署在地球上空550千米处的近地轨道,并从2020年开始工作。该卫星仍在工作。
2D轨道图
3D轨道图
轨道高度分析图
轨道倾角分析图
轨道综合分析图
查看轨道综合分析图